Weather History for Crestview, FL

Change the Weather History Date:

Thursday, February 14, 2013

  Actual Average Record
Temperature  
Mean Temperature 45 °F -  
Max Temperature 55 °F - - ()
Min Temperature 34 °F - - ()
Degree Days  
Heating Degree Days 20    
Moisture  
Dew Point 38 °F    
Average Humidity 80    
Maximum Humidity 94    
Minimum Humidity 54    
Precipitation  
Precipitation 0.00 in - - ()
Sea Level Pressure  
Sea Level Pressure 30.09 in    
Wind  
Wind Speed 5 mph (North)    
Max Wind Speed 12 mph    
Max Gust Speed -    
Visibility 10 miles    
Events      
T = Trace of Precipitation, MM = Missing Value Source: NWS Daily Summary

Daily Weather History Graph

Daily Weather History Graph

Search for Another Location

Airport:

Trip Planner

Search our weather history database for the weather conditions in past years. The results will help you decide how hot, cold, wet, or windy it might be!

Date:

Astronomy

Feb. 14, 2013 Rise Set
Actual Time 6:27 AM CST 5:33 PM CST
Civil Twilight 6:02 AM CST 5:58 PM CST
Nautical Twilight 5:34 AM CST 6:26 PM CST
Astronomical Twilight 5:06 AM CST 6:54 PM CST
Moon 8:52 AM CST (2/14) 10:10 PM CST (2/14)
Length of Visible Light 11h 55m
Length of Day
11h 06m
Waxing Crescent, 22% of the Moon is Illuminated
Feb 14
Waxing Crescent
Feb 17
First Quarter
Feb 25
Full
Mar 4
Last Quarter
Mar 11
New

Hourly Weather History & Observations

Time (CST) Temp. Windchill Dew Point Humidity Pressure Visibility Wind Dir Wind Speed Gust Speed Precip Events Conditions
12:58 AM 45.5 °F 42.5 °F 41.7 °F 87% 30.03 in 10.0 mi NNW 5.8 mph - N/A   Clear
1:58 AM 44.1 °F 42.5 °F 40.1 °F 86% 30.03 in 10.0 mi North 3.5 mph - N/A   Clear
2:58 AM 42.8 °F 39.3 °F 39.7 °F 89% 30.04 in 10.0 mi NNW 5.8 mph - N/A   Clear
3:58 AM 42.6 °F 38.4 °F 39.0 °F 87% 30.04 in 10.0 mi NNW 6.9 mph - N/A   Clear
4:58 AM 42.3 °F 39.4 °F 38.5 °F 86% 30.04 in 10.0 mi North 4.6 mph - N/A   Clear
5:58 AM 41.7 °F 39.8 °F 38.1 °F 87% 30.07 in 10.0 mi North 3.5 mph - N/A   Clear
6:58 AM 41.5 °F 37.1 °F 38.3 °F 88% 30.09 in 10.0 mi North 6.9 mph - N/A   Clear
7:58 AM 41.7 °F 39.8 °F 38.5 °F 88% 30.13 in 10.0 mi Variable 3.5 mph - N/A   Clear
8:55 AM 42.6 °F 39.0 °F 38.8 °F 86% 30.15 in 10.0 mi NNE 5.8 mph - N/A   Overcast
9:55 AM 45.0 °F 39.7 °F 38.8 °F 79% 30.14 in 10.0 mi NNE 10.4 mph - N/A   Mostly Cloudy
10:56 AM 45.9 °F 42.9 °F 38.5 °F 75% 30.12 in 10.0 mi NNE 5.8 mph - N/A   Overcast
11:55 AM 47.5 °F - 38.7 °F 71% 30.14 in 10.0 mi North 9.2 mph - N/A   Mostly Cloudy
12:56 PM 48.9 °F - 39.0 °F 69% 30.09 in 10.0 mi Variable 5.8 mph - N/A   Mostly Cloudy
1:55 PM 50.7 °F - 37.9 °F 62% 30.07 in 10.0 mi North 6.9 mph - N/A   Mostly Cloudy
2:56 PM 54.1 °F - 38.3 °F 55% 30.05 in 10.0 mi North 11.5 mph - N/A   Mostly Cloudy
3:55 PM 55.4 °F - 39.0 °F 54% 30.04 in 10.0 mi North 6.9 mph - N/A   Mostly Cloudy
4:55 PM 55.2 °F - 39.0 °F 54% 30.06 in 10.0 mi North 5.8 mph - N/A   Partly Cloudy
5:55 PM 48.9 °F - 40.1 °F 72% 30.08 in 10.0 mi Calm Calm - N/A   Partly Cloudy
6:55 PM 43.7 °F 42.1 °F 39.6 °F 85% 30.10 in 10.0 mi SSE 3.5 mph - N/A   Clear
7:55 PM 40.3 °F - 38.1 °F 92% 30.11 in 10.0 mi Calm Calm - N/A   Clear
8:55 PM 38.8 °F - 37.0 °F 93% 30.11 in 10.0 mi Calm Calm - N/A   Clear
9:55 PM 37.4 °F - 35.4 °F 93% 30.12 in 10.0 mi Calm Calm - N/A   Clear
10:55 PM 35.6 °F - 33.6 °F 92% 30.11 in 10.0 mi Calm Calm - N/A   Clear
11:55 PM 34.7 °F - 33.1 °F 94% 30.10 in 10.0 mi Calm Calm - N/A   Clear